Time,TemperatureF,DewpointF,PressureIn,WindDirection,WindDirectionDegrees,WindSpeedMPH,WindSpeedGustMPH,Humidity,HourlyPrecipIn,Conditions,Clouds,dailyrainin,SoftwareType,DateUTC
2013-08-15 00:00:00,69.2,65.2,30.09,NE,56,0.0,0.0,87,0.00,,OVC060,0.00,VWS V14.01,2013-08-15 04:00:00,
2013-08-15 00:13:00,69.1,65.1,30.09,NE,56,0.0,0.0,87,0.00,,OVC060,0.00,VWS V14.01,2013-08-15 04:13:00,
2013-08-15 00:28:00,69.0,65.3,30.09,NE,56,0.0,0.0,88,0.00,,OVC060,0.00,VWS V14.01,2013-08-15 04:28:00,
2013-08-15 00:43:00,69.0,65.3,30.09,NE,56,0.0,1.3,88,0.00,,OVC060,0.00,VWS V14.01,2013-08-15 04:43:00,
2013-08-15 00:58:00,68.9,65.2,30.09,ENE,63,2.6,5.2,88,0.00,,OVC060,0.00,VWS V14.01,2013-08-15 04:58:00,
2013-08-15 01:13:00,69.1,65.4,30.09,ENE,62,1.3,2.6,88,0.00,,OVC060,0.00,VWS V14.01,2013-08-15 05:13:00,
2013-08-15 01:28:00,68.8,64.8,30.09,ENE,61,0.0,2.6,87,0.00,,OVC060,0.00,VWS V14.01,2013-08-15 05:28:00,
2013-08-15 01:43:00,68.4,64.7,30.08,ENE,61,0.0,1.3,88,0.00,,OVC060,0.00,VWS V14.01,2013-08-15 05:43:00,
2013-08-15 01:58:00,68.0,64.3,30.09,ENE,61,0.0,0.0,88,0.00,,OVC060,0.00,VWS V14.01,2013-08-15 05:58:00,
2013-08-15 02:13:00,67.4,64.1,30.08,ENE,61,0.0,1.3,89,0.00,,SCT090,0.00,VWS V14.01,2013-08-15 06:13:00,
2013-08-15 02:28:00,66.9,63.6,30.08,ENE,61,0.0,0.0,89,0.00,,SCT090,0.00,VWS V14.01,2013-08-15 06:28:00,
2013-08-15 02:43:00,66.4,63.1,30.08,ENE,61,0.0,0.0,89,0.00,,SCT090,0.00,VWS V14.01,2013-08-15 06:43:00,
2013-08-15 02:58:00,65.8,63.1,30.09,ENE,61,0.0,0.0,91,0.00,,SCT090,0.00,VWS V14.01,2013-08-15 06:58:00,
2013-08-15 03:13:00,65.7,63.0,30.09,ENE,61,0.0,0.0,91,0.00,,CLR,0.00,VWS V14.01,2013-08-15 07:13:00,
2013-08-15 03:28:00,65.8,63.1,30.09,ENE,61,0.0,0.0,91,0.00,,CLR,0.00,VWS V14.01,2013-08-15 07:28:00,
2013-08-15 03:43:00,65.8,62.8,30.09,ENE,61,0.0,1.3,90,0.00,,CLR,0.00,VWS V14.01,2013-08-15 07:43:00,
2013-08-15 03:58:00,65.8,62.8,30.08,ENE,61,0.0,2.6,90,0.00,,CLR,0.00,VWS V14.01,2013-08-15 07:58:00,
2013-08-15 04:13:00,65.7,62.7,30.08,ENE,61,2.6,3.9,90,0.00,,OVC075,0.00,VWS V14.01,2013-08-15 08:13:00,
2013-08-15 04:28:00,65.4,62.4,30.08,ENE,59,0.0,1.3,90,0.00,,OVC075,0.00,VWS V14.01,2013-08-15 08:28:00,
2013-08-15 04:43:00,64.9,61.9,30.09,ENE,59,1.3,2.6,90,0.00,,OVC075,0.00,VWS V14.01,2013-08-15 08:43:00,
2013-08-15 04:58:00,64.4,61.4,30.09,ENE,59,0.0,2.6,90,0.00,,OVC075,0.00,VWS V14.01,2013-08-15 08:58:00,
2013-08-15 05:13:00,64.0,61.3,30.09,NE,52,2.6,3.9,91,0.00,,FEW080,0.00,VWS V14.01,2013-08-15 09:13:00,
2013-08-15 05:28:00,63.8,61.1,30.09,ENE,76,0.0,2.6,91,0.00,,FEW080,0.00,VWS V14.01,2013-08-15 09:28:00,
2013-08-15 05:43:00,63.6,60.9,30.09,ENE,69,1.3,3.9,91,0.00,,FEW080,0.00,VWS V14.01,2013-08-15 09:43:00,
2013-08-15 05:58:00,63.6,60.9,30.10,NE,53,2.6,3.9,91,0.00,,FEW080,0.00,VWS V14.01,2013-08-15 09:58:00,
2013-08-15 06:13:00,63.5,60.8,30.10,NE,51,2.6,5.2,91,0.00,,CLR,0.00,VWS V14.01,2013-08-15 10:13:00,
2013-08-15 06:28:00,63.4,60.7,30.11,ENE,71,1.3,5.2,91,0.00,,CLR,0.00,VWS V14.01,2013-08-15 10:28:00,
2013-08-15 06:43:00,63.3,60.6,30.12,ENE,60,3.9,5.2,91,0.00,,CLR,0.00,VWS V14.01,2013-08-15 10:43:00,
2013-08-15 06:58:00,63.2,60.5,30.12,ENE,76,3.9,9.1,91,0.00,,CLR,0.00,VWS V14.01,2013-08-15 10:58:00,
2013-08-15 07:13:00,63.4,60.4,30.13,NE,46,6.5,9.1,90,0.00,,CLR,0.00,VWS V14.01,2013-08-15 11:13:00,
2013-08-15 07:28:00,63.5,60.5,30.14,East,92,3.9,5.2,90,0.00,,CLR,0.00,VWS V14.01,2013-08-15 11:28:00,
2013-08-15 07:43:00,63.6,60.3,30.14,ENE,66,6.5,7.8,89,0.00,,CLR,0.00,VWS V14.01,2013-08-15 11:43:00,
2013-08-15 07:58:00,63.8,60.5,30.14,NE,55,2.6,5.2,89,0.00,,CLR,0.00,VWS V14.01,2013-08-15 11:58:00,
2013-08-15 08:13:00,64.2,60.6,30.15,NE,55,0.0,6.5,88,0.00,,CLR,0.00,VWS V14.01,2013-08-15 12:13:00,
2013-08-15 08:28:00,65.0,61.0,30.15,ENE,63,6.5,6.5,87,0.00,,CLR,0.00,VWS V14.01,2013-08-15 12:28:00,
2013-08-15 08:43:00,65.0,61.0,30.16,ENE,57,2.6,6.5,87,0.00,,CLR,0.00,VWS V14.01,2013-08-15 12:43:00,
2013-08-15 08:58:00,66.3,61.0,30.16,NNE,13,5.2,9.1,83,0.00,,CLR,0.00,VWS V14.01,2013-08-15 12:58:00,
2013-08-15 09:13:00,66.7,60.3,30.16,ENE,69,6.5,14.3,80,0.00,,SCT070,0.00,VWS V14.01,2013-08-15 13:13:00,
2013-08-15 09:28:00,66.8,59.7,30.17,ESE,107,2.6,13.0,78,0.00,,SCT070,0.00,VWS V14.01,2013-08-15 13:28:00,
2013-08-15 09:43:00,67.0,59.9,30.16,ENE,65,11.7,14.3,78,0.00,,SCT070,0.00,VWS V14.01,2013-08-15 13:43:00,
2013-08-15 09:58:00,67.1,59.7,30.16,East,85,5.2,15.6,77,0.00,,SCT070,0.00,VWS V14.01,2013-08-15 13:58:00,
2013-08-15 10:13:00,67.5,59.7,30.16,ENE,61,3.9,15.6,76,0.00,,BKN065,0.00,VWS V14.01,2013-08-15 14:13:00,
2013-08-15 10:28:00,68.9,60.7,30.16,ENE,74,10.4,10.4,75,0.00,,BKN065,0.00,VWS V14.01,2013-08-15 14:28:00,
2013-08-15 10:43:00,69.5,60.9,30.17,East,87,5.2,6.5,74,0.00,,BKN065,0.00,VWS V14.01,2013-08-15 14:43:00,
2013-08-15 10:58:00,70.0,59.4,30.17,ENE,77,5.2,14.3,69,0.00,,BKN065,0.00,VWS V14.01,2013-08-15 14:58:00,
2013-08-15 11:13:00,71.0,61.5,30.17,ESE,103,2.6,9.1,72,0.00,,CLR,0.00,VWS V14.01,2013-08-15 15:13:00,
2013-08-15 11:28:00,71.4,60.3,30.15,NNE,28,5.2,9.1,68,0.00,,CLR,0.00,VWS V14.01,2013-08-15 15:28:00,
2013-08-15 11:43:00,72.1,60.5,30.16,East,98,5.2,11.7,67,0.00,,CLR,0.00,VWS V14.01,2013-08-15 15:43:00,
2013-08-15 11:58:00,70.7,61.2,30.16,ENE,65,2.6,3.9,72,0.00,,CLR,0.00,VWS V14.01,2013-08-15 15:58:00,
2013-08-15 12:13:00,70.7,60.8,30.16,East,98,9.1,9.1,71,0.00,,CLR,0.00,VWS V14.01,2013-08-15 16:13:00,
2013-08-15 12:28:00,70.1,60.7,30.15,East,86,6.5,9.1,72,0.00,,CLR,0.00,VWS V14.01,2013-08-15 16:28:00,
2013-08-15 12:43:00,69.6,60.2,30.15,NE,48,5.2,13.0,72,0.00,,CLR,0.00,VWS V14.01,2013-08-15 16:43:00,
2013-08-15 12:58:00,69.9,60.9,30.15,East,82,2.6,7.8,73,0.00,,CLR,0.00,VWS V14.01,2013-08-15 16:58:00,
2013-08-15 13:13:00,70.0,61.7,30.15,ENE,63,5.2,5.2,75,0.00,,FEW120,0.00,VWS V14.01,2013-08-15 17:13:00,
2013-08-15 13:28:00,69.5,61.2,30.15,NE,46,1.3,6.5,75,0.00,,FEW120,0.00,VWS V14.01,2013-08-15 17:28:00,
2013-08-15 13:43:00,69.4,61.5,30.14,NE,47,2.6,9.1,76,0.00,,FEW120,0.00,VWS V14.01,2013-08-15 17:43:00,
2013-08-15 13:58:00,69.8,61.9,30.14,NE,53,3.9,3.9,76,0.00,,FEW120,0.00,VWS V14.01,2013-08-15 17:58:00,
2013-08-15 14:43:00,71.9,63.5,30.13,East,91,1.3,9.1,75,0.00,,BKN120,0.00,VWS V14.01,2013-08-15 18:43:00,
2013-08-15 14:58:00,72.7,62.0,30.12,East,90,0.0,7.8,69,0.00,,BKN120,0.00,VWS V14.01,2013-08-15 18:58:00,
2013-08-15 15:13:00,71.9,62.0,30.12,NE,40,0.0,7.8,71,0.00,,CLR,0.00,VWS V14.01,2013-08-15 19:13:00,
2013-08-15 15:58:00,71.9,62.0,30.11,East,90,0.0,5.2,71,0.00,,CLR,0.00,VWS V14.01,2013-08-15 19:58:00,
2013-08-15 16:13:00,71.7,62.6,30.11,North,360,2.6,6.5,73,0.00,,BKN100,0.00,VWS V14.01,2013-08-15 20:13:00,
2013-08-15 16:58:00,71.2,61.7,30.12,NE,46,1.3,9.1,72,0.00,,BKN100,0.00,VWS V14.01,2013-08-15 20:58:00,
2013-08-15 17:13:00,70.5,62.6,30.12,NNE,26,2.6,2.6,76,0.00,,OVC100,0.00,VWS V14.01,2013-08-15 21:13:00,
2013-08-15 17:28:00,71.0,63.4,30.12,East,87,0.0,1.3,77,0.00,,OVC100,0.00,VWS V14.01,2013-08-15 21:28:00,
2013-08-15 17:43:00,71.7,63.4,30.12,ENE,63,1.3,6.5,75,0.00,,OVC100,0.00,VWS V14.01,2013-08-15 21:43:00,
2013-08-15 17:58:00,71.1,62.0,30.12,NE,40,3.9,9.1,73,0.00,,OVC100,0.00,VWS V14.01,2013-08-15 21:58:00,
2013-08-15 18:13:00,71.0,62.3,30.12,ENE,65,3.9,3.9,74,0.00,,OVC095,0.00,VWS V14.01,2013-08-15 22:13:00,
2013-08-15 18:28:00,70.9,62.2,30.12,ENE,63,2.6,6.5,74,0.00,,OVC095,0.00,VWS V14.01,2013-08-15 22:28:00,
2013-08-15 18:43:00,71.1,62.8,30.12,ENE,76,1.3,3.9,75,0.00,,OVC095,0.00,VWS V14.01,2013-08-15 22:43:00,
2013-08-15 18:58:00,70.4,62.1,30.12,ENE,78,5.2,7.8,75,0.00,,OVC095,0.00,VWS V14.01,2013-08-15 22:58:00,
2013-08-15 19:13:00,69.9,63.1,30.13,ENE,78,1.3,3.9,79,0.00,,,0.00,VWS V14.01,2013-08-15 23:13:00,
2013-08-15 19:43:00,69.1,63.0,30.13,ENE,78,1.3,2.6,81,0.00,,,0.00,VWS V14.01,2013-08-15 23:43:00,
2013-08-15 19:58:00,68.4,62.7,30.13,ENE,76,0.0,1.3,82,0.00,,,0.00,VWS V14.01,2013-08-15 23:58:00,
2013-08-15 20:13:00,68.0,62.3,30.13,ENE,76,0.0,1.3,82,0.00,,OVC095,0.00,VWS V14.01,2013-08-16 00:13:00,
2013-08-15 20:28:00,67.7,62.4,30.13,ENE,76,0.0,1.3,83,0.00,,OVC095,0.00,VWS V14.01,2013-08-16 00:28:00,
2013-08-15 20:43:00,67.2,62.5,30.14,ENE,76,0.0,0.0,85,0.00,,OVC095,0.00,VWS V14.01,2013-08-16 00:43:00,
2013-08-15 20:58:00,67.1,62.5,30.14,ENE,76,0.0,0.0,85,0.00,,OVC095,0.00,VWS V14.01,2013-08-16 00:58:00,
2013-08-15 21:13:00,66.6,62.3,30.14,ENE,76,0.0,0.0,86,0.00,,OVC100,0.00,VWS V14.01,2013-08-16 01:13:00,
2013-08-15 21:28:00,66.5,62.5,30.15,ENE,76,0.0,0.0,87,0.00,,OVC100,0.00,VWS V14.01,2013-08-16 01:28:00,
2013-08-15 21:43:00,66.2,62.2,30.16,ENE,76,0.0,0.0,87,0.00,,OVC100,0.00,VWS V14.01,2013-08-16 01:43:00,
2013-08-15 21:58:00,66.5,62.8,30.16,ENE,76,0.0,0.0,88,0.00,,OVC100,0.00,VWS V14.01,2013-08-16 01:58:00,
2013-08-15 22:13:00,66.3,62.6,30.16,ENE,76,0.0,0.0,88,0.00,,OVC100,0.00,VWS V14.01,2013-08-16 02:13:00,
2013-08-15 22:28:00,66.3,62.3,30.16,ENE,76,0.0,0.0,87,0.00,,OVC100,0.00,VWS V14.01,2013-08-16 02:28:00,
2013-08-15 22:43:00,65.9,62.2,30.16,ENE,76,0.0,0.0,88,0.00,,OVC100,0.00,VWS V14.01,2013-08-16 02:43:00,
2013-08-15 22:58:00,66.0,62.3,30.15,ENE,76,0.0,0.0,88,0.00,,OVC100,0.00,VWS V14.01,2013-08-16 02:58:00,
2013-08-15 23:13:00,65.7,62.0,30.16,ENE,76,0.0,0.0,88,0.00,,OVC090,0.00,VWS V14.01,2013-08-16 03:13:00,
2013-08-15 23:28:00,65.4,62.1,30.15,ENE,76,0.0,0.0,89,0.00,,OVC090,0.00,VWS V14.01,2013-08-16 03:28:00,
2013-08-15 23:43:00,65.3,61.7,30.15,ENE,76,0.0,1.3,88,0.00,,OVC090,0.00,VWS V14.01,2013-08-16 03:43:00,